This demonstration page uses our WeatherBlox Daily Observations layout. Learn more.

Left ArrowRight Arrow

41.86663, -103.66717

Hourly Observations for June 18, 2021

Temp ( °F °C ) Dew Point ( °F °C ) Humidity (%) Winds ( mph kmh ) Pressure ( in mb ) Visibility ( mi km ) Precip ( " mm )
12:53 am 00:53 Clear 68 20 56 13.3 65 65 N 6 9 29.75 1008 10 16 N/A
1:53 am 01:53 Clear 68 20 55 12.8 63 63 ESE 8 13 29.75 1008 10 16 N/A
2:53 am 02:53 Clear 67 19.4 56 13.3 68 68 N N/A 29.77 1008 10 16 N/A
3:53 am 03:53 Clear 67 19.4 60 15.6 79 79 ENE 9 15 29.77 1008 10 16 N/A
4:53 am 04:53 Clear 65 18.3 60 15.6 84 84 NNE 8 13 29.80 1009 10 16 N/A
5:53 am 05:53 Sunny 64 17.8 59 15 84 84 N 7 11 29.85 1011 10 16 N/A
6:53 am 06:53 Sunny 68 20 60 15.6 76 76 NW 5 7 29.88 1012 10 16 N/A
7:53 am 07:53 Sunny 71 21.7 60 15.6 68 68 N N/A 29.91 1013 10 16 N/A
8:53 am 08:53 Sunny 73 22.8 60 15.6 64 64 VRB 6 9 29.91 1013 10 16 N/A
9:53 am 09:53 Sunny 75 23.9 61 16.1 62 62 WNW 6 9 29.91 1013 10 16 N/A
10:53 am 10:53 Sunny 79 26.1 60 15.6 52 52 VRB 3 6 29.90 1013 10 16 N/A
11:53 am 11:53 Sunny 84 28.9 59 15 43 43 N N/A 29.88 1012 10 16 N/A
12:53 pm 12:53 Sunny 85 29.4 57 13.9 39 39 S 7 11 29.87 1011 10 16 N/A
1:53 pm 13:53 Sunny 88 31.1 54 12.2 31 31 SE 12 19 29.84 1010 10 16 N/A
2:53 pm 14:53 Sunny 90 32.2 53 11.7 28 28 SSE 10 17 29.83 1010 10 16 N/A
3:53 pm 15:53 Sunny 90 32.2 50 10 25 25 ENE 20 31 29.83 1010 10 16 N/A
4:53 pm 16:53 Sunny 91 32.8 42 5.6 18 18 E 14 22 29.80 1009 10 16 N/A
5:53 pm 17:53 Sunny 90 32.2 46 7.8 22 22 SE 14 22 29.79 1009 10 16 N/A
6:53 pm 18:53 Sunny 88 31.1 50 10 27 27 SE 12 19 29.80 1009 10 16 N/A
7:53 pm 19:53 Sunny 84 28.9 49 9.4 30 30 ESE 10 17 29.81 1009 10 16 N/A
8:53 pm 20:53 Clear 78 25.6 50 10 37 37 ESE 6 9 29.83 1010 10 16 N/A
9:53 pm 21:53 Mostly Clear 75 23.9 49 9.4 40 40 E 8 13 29.86 1011 10 16 N/A
10:53 pm 22:53 Clear 74 23.3 49 9.4 41 41 E 9 15 29.84 1011 10 16 N/A
11:53 pm 23:53 Clear 71 21.7 52 11.1 51 51 E 7 11 29.83 1010 10 16 N/A

Powered by AerisWeather